Showing default

RANDEV, 52898

Orbit data source: Space-Track

RANDEV, 52898 is a payload satellite owned by KAIST (KR) in SSO that was launched on Tue, 21 Jun 2022 UTC via an NURI launch vehicle from the Naro Space Center, South Korea (NSC). Payload-class satellites include a variety of spacecraft equipped with specific instruments for various scientific and technological missions. These include communications satellites like Starlink; space stations such as the ISS; scientific satellites like the Hubble; Earth observation satellites from companies like Planet Labs, Umbra, and HawkEye 360; GPS; miniature CubeSats for education and research; and military/defense satellites.

Loading next visibility...
Identifier
52898, 2022-065E
Orbit
SSO
Last TLE update
9 hours ago
Origin
Manufacturer
KAIST
Mission
Operational Civil Technology
Bus & Motor
CUBESAT 3U, Unknown motor
Mass
4 kg wet, 4 kg dry
Launch date (UTC)
2022-06-21 (3 years ago)
Launch vehicle
NURI
Launch site
Naro Space Center, South Korea (NSC)
Object type
Payload
Rocket body
Debris
Shape & HBR
Box, 0.3 m
Radar Cross Section
0.035 m², Small (<0.1 m²)

Expand to show TLE details & history

TLE from 9 hours ago
0 RANDEV
1 52898U 22065E   25188.08054236  .00000682  00000-0  14316-3 0  9993
2 52898  98.1731 329.4904 0008671  36.0442 324.1342 14.62727097160781
Epoch: 2025-07-07T01:55Z
TLE epoch observation values (Epoch: 2025-07-07T01:55:58.859Z)
Latitude
-0.00013°
Longitude
15.20016°
Altitude
682.41 km
Speed
7.518 km/s
True Right ascension
21h 57m 57s
True Declination
0° 00' 00"
Sunlit
Object was in full shadow at epoch
Visualization orbit readout
Latitude
-67.90461°
Longitude
174.98291°
Altitude
715.022 km
Speed
7.494 km/s
Apparent Right ascension
10h 22m 41s
Apparent Declination
-56° 03' 27"
Sunlit
Object is in daylight
Visualization observer readout
Local Sidereal Time
23:18:54
Azimuth
154.847° SSE
Elevation
-71.399°
Doppler factor
1
Orbital elements
Apogee altitude
687.58 km
Perigee altitude
675.337 km
Semi-major axis
7,059.595 km
Eccentricity
0.00087
Inclination
98.1731°
RAAN
329.4904°
Arg. of periapsis
36.0442°
True anomaly
Unknown
Mean anomaly
324.1342°
Eccentric anomaly
Unknown
Mean motion
3.65909 °/min
Orbital period
98.39 mins
BSTAR
0.00014316
Loading maneuver chart data...
Loading SW <> Apogee altitude chart data...
Loading historical data...
Loading historical data...
Loading historical data...
Loading historical data...
Loading historical data...
Loading historical data...
Loading historical data...

RANDEV Visibility forecast

Observer location: undefined°, undefined°

Span
Click to sort rows by Start time (UTC) header in descending order
Start Az.
Max El. time (UTC)
Max El. Az.
Max El.
End time (UTC)
End Az.
9 mins2025-07-07 22:11:39.973Z16.723° NNE2025-07-07 22:16:39.973Z145.15° SSE42.892°2025-07-07 22:20:39.973Z187.348° SSW
7 mins2025-07-08 09:15:39.973Z153.963° SSE2025-07-08 09:18:39.973Z80.216° E43.068°2025-07-08 09:22:39.973Z353.242° N
|